DECAYED

CZ-6A DEB, 61348 (Decayed)

Orbit data source: Space-Track

CZ-6A DEB, 61348 was space debris in LEO originally from a launch on Tue, 06 Aug 2024 UTC launched from the Taiyaun Space Center, China (TSC). Debris objects in space refer to the collection of defunct objects orbiting the Earth. Examples of debris include non-operational satellites, rocket bodies, and fragments generated from explosions, collisions, or faulty payload assembly.

Not visible in the next 10 days
Identifier
61348, 2024-140VM
Orbit
Decayed
Country
Flag of CNCN / PRC
Related business
Manufacturer
SAST
Mission
Decayed spacecraft
Bus & Motor
Unknown
Mass
Unknown
Launch date (UTC)
2024-08-06 (1 year ago)
Launch vehicle
Unknown
Launch site
Taiyaun Space Center, China (TSC)
Object type
Payload
Rocket body
Debris
Shape & HBR
Unknown shape, 0.1 m
Radar Cross Section
Small (<0.1 m²)

Expand to show TLE details & history
Last TLE update: 8 months ago

TLE from 8 months ago
0 CZ-6A DEB
1 61348U 24140VM  25111.05906149  .02398419  00000-0  16649-1 0  9990
2 61348  88.8674 315.7152 0017478 199.8802 160.1793 15.70797107 34371
Epoch: 2025-04-21T01:25Z
TLE epoch observation values (Epoch: 2025-04-21T01:25:02.912Z)
Latitude
0.00004°
Longitude
85.07407°
Altitude
370.962 km
Speed
7.681 km/s
True Right ascension
21h 02m 51s
True Declination
0° 00' 00"
Sunlit
Object was in daylight at epoch
Visualization orbit readout
Latitude
Unknown
Longitude
Unknown
Altitude
Unknown
Speed
Unknown
Apparent Right ascension
Unknown
Apparent Declination
Unknown
Sunlit
N/A
Visualization observer readout
Local Sidereal Time
10:53:36
Azimuth
Unknown
Elevation
Unknown
Doppler factor
Unknown
Orbital elements
Apogee altitude
365.122 km
Perigee altitude
341.592 km
Semi-major axis
6,731.494 km
Eccentricity
0.00175
Inclination
88.8674°
RAAN
315.7152°
Arg. of periapsis
199.8802°
True anomaly
160.24707°
Mean anomaly
160.1793°
Eccentric anomaly
160.2132°
Mean motion
3.92985 °/min
Orbital period
91.61 mins
BSTAR
0.016649
Loading maneuver chart data...
Computing Atmospheric mass density...
Loading historical data...
Loading historical data...
Loading historical data...
Loading historical data...
Loading historical data...
Loading historical data...
Loading historical data...

Documentation

Showing up to 5 results
|